Location: Treviso
(45.6669°N, 12.2430°E)
Time: 10:26:26
(UTC+02:00)

ISS - Pass Details

Date: 28 May 2023
Orbit: 412 x 419 km, 51.6° (Epoch: 30 May)

Event Time Altitude Azimuth Distance (km) Brightness Sun altitude
Rises 22:47:03 0° 289° (WNW) 2,356 1.0 -15.5°
Reaches altitude 10° 22:49:30 10° 272° (W) 1,491 -0.5 -15.8°
Maximum altitude 22:52:00 20° 224° (SW) 1,039 -1.9 -16.0°
Enters shadow 22:52:34 19° 209° (SSW) 1,066 -2.0 -16.1°
